period_start,C,m1,H,J0,J1,J2,J3,J4,J5,JA,JB,JC,JD,JJ,JK,JN,#
2016-07-15 00:02:50,0.02,0.07,0.00,18.81,25.05,28.75,14.80,45.09,1018.08,2050.00,3587.14,3143.05,3567.53,599.71,605.32,17.58,0000 0000 0000 0000 000000
2016-07-15 00:07:51,0.00,0.07,0.00,18.82,25.05,28.75,14.86,45.12,1018.08,2050.00,3587.01,3143.01,3567.07,599.87,605.38,17.63,0000 0000 0000 0000 000000
2016-07-15 00:12:52,0.00,0.07,0.00,18.88,25.05,28.70,14.84,45.02,1018.08,2050.00,3586.99,3143.00,3567.01,599.92,605.20,17.68,0000 0000 0000 0000 000000
2016-07-15 00:17:54,0.00,0.07,0.00,18.89,25.05,28.69,14.88,45.05,1018.07,2049.99,3586.91,3142.99,3567.00,600.04,605.35,17.73,0000 0000 0000 0000 000000
2016-07-15 00:22:55,0.01,0.07,0.00,18.93,25.07,28.68,14.79,44.97,1017.97,2049.99,3586.30,3142.95,3566.96,599.61,604.74,17.78,0000 0000 0000 0000 000000
2016-07-15 00:27:56,0.00,0.07,0.00,19.02,25.07,28.67,14.84,44.89,1017.77,2049.99,3586.03,3142.87,3566.81,599.93,604.80,17.83,0000 0000 0000 0000 000000
2016-07-15 00:32:58,0.03,0.07,0.00,19.03,25.07,28.72,14.83,44.88,1017.70,2049.99,3586.00,3142.19,3566.15,600.10,604.87,17.88,0000 0000 0000 0000 000000
2016-07-15 00:37:59,0.01,0.07,0.00,19.03,25.08,28.63,14.69,44.86,1017.62,2049.99,3585.68,3142.01,3566.00,599.63,604.34,17.93,0000 0000 0000 0000 000000
2016-07-15 00:43:01,0.00,0.07,0.00,19.01,25.10,28.69,14.74,44.93,1017.59,2049.98,3585.14,3142.00,3565.97,599.86,604.56,17.98,0000 0000 0000 0000 000000
2016-07-15 00:48:02,0.00,0.07,0.00,19.04,25.10,28.65,14.77,44.88,1017.60,2049.99,3585.00,3141.99,3565.66,599.35,604.11,18.03,0000 0000 0000 0000 000000
2016-07-15 00:53:03,0.01,0.07,0.00,19.04,25.12,28.60,14.89,44.86,1017.57,2049.99,3584.99,3141.85,3565.12,600.20,604.88,18.08,0000 0000 0000 0000 000000
2016-07-15 00:58:04,0.02,0.07,0.00,19.08,25.13,28.67,14.78,45.01,1017.33,2049.98,3584.61,3141.27,3565.01,599.57,604.12,18.13,0000 0000 0000 0000 000000
2016-07-15 01:03:06,0.00,0.07,0.00,19.00,25.15,28.70,14.83,45.15,1017.15,2049.98,3584.10,3141.02,3564.99,600.00,604.54,18.18,0000 0000 0000 0000 000000
2016-07-15 01:08:07,0.01,0.07,0.00,18.97,25.15,28.69,14.88,45.43,1017.12,2049.95,3584.00,3141.00,3564.56,600.01,604.47,18.23,0000 0000 0000 0000 000000
2016-07-15 01:13:09,0.00,0.08,0.00,18.96,25.17,28.81,14.84,45.33,1017.11,2049.92,3583.92,3140.97,3564.07,600.13,604.73,18.28,0000 0000 0000 0000 000000
2016-07-15 01:18:10,0.02,0.08,0.00,18.95,25.17,28.82,14.85,45.38,1017.10,2049.81,3583.14,3140.53,3563.88,600.32,604.93,18.33,0000 0000 0000 0000 000000
2016-07-15 01:23:11,-0.01,0.08,0.00,18.97,25.19,28.85,14.81,45.38,1017.09,2049.62,3582.99,3140.00,3563.11,599.84,604.44,18.38,0000 0000 0000 0000 000000
2016-07-15 01:28:12,-0.01,0.08,0.00,18.96,25.20,28.84,14.85,45.38,1017.09,2049.39,3582.79,3139.85,3563.00,599.83,604.39,18.43,0000 0000 0000 0000 000000
2016-07-15 01:33:13,0.01,0.08,0.00,18.97,25.20,28.79,14.83,45.55,1017.00,2049.19,3582.10,3139.29,3562.92,599.91,604.45,18.48,0000 0000 0000 0000 000000
2016-07-15 01:38:15,0.01,0.08,0.00,18.96,25.22,28.82,14.85,45.36,1016.95,2049.14,3582.00,3139.02,3562.45,600.07,604.61,18.53,0000 0000 0000 0000 000000
2016-07-15 01:43:16,0.01,0.08,0.00,18.99,25.22,28.81,14.84,45.55,1016.84,2049.11,3581.72,3138.89,3562.03,600.20,604.54,18.58,0000 0000 0000 0000 000000
2016-07-15 01:48:17,0.02,0.08,0.00,18.98,25.23,28.86,14.80,45.42,1016.76,2049.02,3581.03,3138.32,3561.76,599.82,604.08,18.63,0000 0000 0000 0000 000000
2016-07-15 01:53:18,0.01,0.08,0.00,19.01,25.25,28.85,14.86,45.49,1016.99,2049.03,3581.00,3138.07,3561.33,600.05,604.42,18.68,0000 0000 0000 0000 000000
2016-07-15 01:58:20,0.01,0.08,0.00,19.01,25.25,28.84,14.87,45.41,1017.08,2049.03,3580.46,3137.99,3561.00,600.08,604.57,18.73,0000 0000 0000 0000 000000
2016-07-15 02:03:21,0.01,0.08,0.00,19.03,25.25,28.89,14.93,45.58,1017.10,2049.02,3580.01,3137.89,3560.87,600.46,604.86,18.78,0000 0000 0000 0000 000000
2016-07-15 02:08:22,0.03,0.08,0.00,19.02,25.27,28.88,14.87,45.54,1017.10,2049.02,3580.00,3137.28,3560.22,599.98,604.41,18.83,0000 0000 0000 0000 000000
2016-07-15 02:13:24,0.01,0.08,0.00,19.05,25.27,28.88,14.83,45.40,1017.11,2049.02,3579.62,3137.03,3560.01,600.11,604.51,18.88,0000 0000 0000 0000 000000
2016-07-15 02:18:25,0.02,0.08,0.00,19.11,25.28,28.84,14.76,45.33,1017.13,2049.00,3579.03,3136.79,3559.55,600.00,604.28,18.93,0000 0000 0000 0000 000000
2016-07-15 02:23:26,0.02,0.08,0.00,19.13,25.30,28.83,14.74,45.20,1017.12,2049.01,3578.81,3136.13,3559.02,599.93,604.16,18.98,0000 0000 0000 0000 000000
2016-07-15 02:28:28,0.01,0.09,0.00,19.15,25.30,28.84,14.78,45.27,1017.12,2049.00,3578.10,3136.02,3559.00,599.76,604.01,19.03,0000 0000 0000 0000 000000
2016-07-15 02:33:29,0.00,0.09,0.00,19.17,25.32,28.86,14.78,45.12,1017.17,2049.00,3578.00,3135.99,3558.89,599.91,604.14,19.08,0000 0000 0000 0000 000000
2016-07-15 02:38:30,0.01,0.09,0.00,19.23,25.32,28.86,14.82,45.23,1017.26,2049.00,3577.98,3135.98,3558.43,599.99,604.14,19.13,0000 0000 0000 0000 000000
2016-07-15 02:43:31,0.02,0.09,0.00,19.24,25.34,28.80,14.82,45.33,1017.17,2049.00,3577.61,3135.66,3558.04,600.28,604.36,19.18,0000 0000 0000 0000 000000
2016-07-15 02:48:32,0.01,0.09,0.00,19.26,25.36,28.81,14.77,45.19,1017.16,2049.00,3577.12,3135.13,3558.00,599.88,603.84,19.23,0000 0000 0000 0000 000000
2016-07-15 02:53:33,0.00,0.09,0.00,19.30,25.37,28.77,14.75,45.23,1017.17,2049.00,3577.00,3135.00,3557.95,599.79,603.71,19.28,0000 0000 0000 0000 000000
2016-07-15 02:58:35,0.01,0.09,0.00,19.33,25.39,28.76,14.78,45.19,1017.15,2048.98,3576.78,3135.00,3557.29,600.15,604.03,19.33,0000 0000 0000 0000 000000
2016-07-15 03:03:36,0.01,0.09,0.00,19.34,25.41,28.77,14.76,45.11,1017.13,2048.96,3576.06,3134.99,3557.01,600.25,603.94,19.38,0000 0000 0000 0000 000000
2016-07-15 03:08:38,0.01,0.09,0.00,19.37,25.42,28.72,14.77,45.29,1017.12,2048.91,3576.00,3134.58,3556.93,599.82,603.58,19.43,0000 0000 0000 0000 000000
2016-07-15 03:13:39,0.00,0.09,0.00,19.41,25.45,28.73,14.76,45.06,1017.11,2048.77,3575.85,3134.04,3556.31,600.05,603.69,19.48,0000 0000 0000 0000 000000
2016-07-15 03:18:40,0.00,0.09,0.00,19.46,25.47,28.79,14.83,45.32,1017.11,2048.64,3575.11,3134.00,3556.02,600.31,603.82,19.53,0000 0000 0000 0000 000000
2016-07-15 03:23:41,-0.03,0.09,0.00,19.46,25.49,28.75,14.75,45.27,1017.10,2048.19,3575.00,3133.96,3555.98,600.02,603.54,19.58,0000 0000 0000 0000 000000
2016-07-15 03:28:42,0.01,0.09,0.00,19.49,25.51,28.80,14.83,45.17,1017.05,2048.06,3574.83,3133.68,3555.59,600.14,603.58,19.63,0000 0000 0000 0000 000000
2016-07-15 03:33:44,0.02,0.09,0.00,19.53,25.53,28.81,14.68,45.14,1017.03,2048.03,3574.10,3133.12,3555.07,599.62,602.99,19.68,0000 0000 0000 0000 000000
2016-07-15 03:38:45,0.00,0.09,0.00,19.58,25.56,28.77,14.75,45.25,1016.96,2048.01,3573.99,3133.00,3554.98,599.96,603.20,19.73,0000 0000 0000 0000 000000
2016-07-15 03:43:46,0.02,0.09,0.00,19.62,25.58,28.76,14.78,45.22,1016.90,2048.00,3573.36,3132.93,3554.59,599.83,602.87,19.78,0000 0000 0000 0000 000000
2016-07-15 03:48:47,0.02,0.09,0.00,19.64,25.61,28.80,14.76,45.26,1016.75,2047.99,3573.01,3132.28,3554.03,599.98,602.79,19.83,0000 0000 0000 0000 000000
2016-07-15 03:53:49,0.01,0.09,0.00,19.66,25.63,28.81,14.74,45.08,1016.67,2047.98,3572.68,3132.00,3553.95,600.17,602.99,19.88,0000 0000 0000 0000 000000
2016-07-15 03:58:50,0.01,0.09,0.00,19.69,25.66,28.87,14.84,45.23,1016.64,2047.93,3572.06,3131.98,3553.23,600.31,603.05,19.93,0000 0000 0000 0000 000000
2016-07-15 04:03:51,-0.01,0.09,0.00,19.69,25.68,28.85,14.79,45.08,1016.63,2047.68,3571.96,3131.44,3553.00,600.31,603.13,19.98,0000 0000 0000 0000 000000
2016-07-15 04:08:52,-0.00,0.09,0.00,19.74,25.71,28.88,14.75,45.29,1016.62,2047.45,3571.42,3131.03,3552.91,599.64,602.26,20.03,0000 0000 0000 0000 000000
2016-07-15 04:13:54,-0.01,0.09,0.00,19.77,25.73,28.88,14.68,44.94,1016.62,2047.17,3571.00,3131.00,3552.21,600.06,602.69,20.08,0000 0000 0000 0000 000000
2016-07-15 04:18:55,0.00,0.09,0.00,19.83,25.76,28.95,14.74,45.19,1016.62,2047.03,3570.81,3130.88,3552.00,600.09,602.57,20.14,0000 0000 0000 0000 000000
2016-07-15 04:23:56,0.04,0.10,0.00,19.85,25.79,28.96,14.81,45.01,1016.62,2047.04,3570.08,3130.17,3551.69,600.80,603.22,20.19,0000 0000 0000 0000 000000
2016-07-15 04:28:58,0.04,0.10,0.00,19.89,25.81,29.00,14.74,45.09,1016.60,2047.01,3569.34,3129.44,3550.85,599.80,601.91,20.24,0000 0000 0000 0000 000000
2016-07-15 04:33:59,0.01,0.10,0.00,19.91,25.84,29.03,14.72,44.88,1016.55,2047.00,3569.01,3129.01,3550.14,600.01,602.47,20.29,0000 0000 0000 0000 000000
2016-07-15 04:39:01,0.01,0.10,0.00,19.96,25.87,29.07,14.62,44.88,1016.33,2047.00,3568.65,3128.99,3549.99,599.38,601.42,20.34,0000 0000 0000 0000 000000
2016-07-15 04:44:02,0.03,0.10,0.00,19.97,25.90,29.10,14.76,44.92,1016.19,2047.00,3568.02,3128.42,3549.42,600.26,602.23,20.39,0000 0000 0000 0000 000000
2016-07-15 04:49:03,0.00,0.10,0.00,20.03,25.93,29.13,14.72,45.03,1016.17,2047.00,3567.84,3128.01,3549.02,600.41,602.22,20.44,0000 0000 0000 0000 000000
2016-07-15 04:54:04,0.01,0.10,0.00,20.05,25.96,29.17,14.79,45.07,1016.25,2047.00,3567.13,3127.99,3548.82,600.10,601.82,20.49,0000 0000 0000 0000 000000
2016-07-15 04:59:06,0.03,0.10,0.00,20.04,25.98,29.18,14.72,44.84,1016.26,2046.97,3566.80,3127.33,3548.09,600.23,602.07,20.54,0000 0000 0000 0000 000000
2016-07-15 05:04:07,0.00,0.10,0.00,20.08,26.01,29.21,14.75,44.86,1016.21,2046.88,3566.10,3127.01,3547.96,600.36,602.13,20.59,0000 0000 0000 0000 000000
2016-07-15 05:09:08,-0.02,0.10,0.00,20.11,26.04,29.20,14.80,45.05,1016.16,2046.59,3565.97,3126.97,3547.26,599.98,601.53,20.64,0000 0000 0000 0000 000000
2016-07-15 05:14:09,0.00,0.10,0.00,20.13,26.07,29.25,14.63,44.83,1016.16,2046.23,3565.25,3126.41,3547.00,599.77,601.36,20.69,0000 0000 0000 0000 000000
2016-07-15 05:19:11,-0.00,0.10,0.00,20.14,26.10,29.28,14.64,44.82,1016.15,2046.03,3564.99,3126.01,3546.72,599.92,601.53,20.74,0000 0000 0000 0000 000000
2016-07-15 05:24:12,0.02,0.10,0.00,20.17,26.12,29.33,14.76,44.82,1016.14,2046.01,3564.31,3125.90,3546.03,600.65,602.22,20.79,0000 0000 0000 0000 000000
2016-07-15 05:29:13,0.02,0.11,0.00,20.19,26.15,29.34,14.74,44.79,1016.14,2046.00,3564.00,3125.19,3545.93,600.25,601.65,20.84,0000 0000 0000 0000 000000
2016-07-15 05:34:14,0.02,0.11,0.00,20.24,26.18,29.39,14.72,44.96,1016.14,2046.00,3563.35,3125.00,3545.14,599.96,601.34,20.89,0000 0000 0000 0000 000000
2016-07-15 05:39:16,0.00,0.11,0.00,20.30,26.21,29.43,14.70,44.83,1016.15,2045.97,3563.00,3124.86,3544.99,599.95,601.19,20.94,0000 0000 0000 0000 000000
2016-07-15 05:44:17,0.04,0.11,0.00,20.34,26.23,29.40,14.68,44.80,1016.15,2045.97,3562.44,3124.17,3544.48,599.95,601.11,20.99,0000 0000 0000 0000 000000
2016-07-15 05:49:18,-0.01,0.11,0.00,20.39,26.26,29.46,14.67,44.74,1016.14,2045.85,3562.01,3124.01,3544.02,599.61,600.71,21.04,0000 0000 0000 0000 000000
2016-07-15 05:54:19,-0.03,0.11,0.00,20.40,26.28,29.46,14.66,44.83,1016.14,2045.39,3561.79,3123.95,3543.96,599.70,600.77,21.09,0000 0000 0000 0000 000000
2016-07-15 05:59:21,0.02,0.11,0.00,20.40,26.31,29.52,14.72,44.73,1016.13,2045.08,3561.06,3123.26,3543.18,599.81,600.88,21.14,0000 0000 0000 0000 000000
2016-07-15 06:04:22,0.01,0.11,0.00,20.41,26.33,29.58,14.71,44.90,1016.14,2045.02,3560.68,3123.00,3542.96,600.05,601.08,21.19,0000 0000 0000 0000 000000
2016-07-15 06:09:23,0.01,0.11,0.00,20.40,26.36,29.59,14.68,44.81,1016.13,2045.00,3560.02,3122.91,3542.33,599.75,600.76,21.24,0000 0000 0000 0000 000000
2016-07-15 06:14:25,0.02,0.11,0.00,20.39,26.38,29.66,14.74,44.83,1016.13,2045.00,3559.78,3122.19,3542.00,600.17,601.15,21.29,0000 0000 0000 0000 000000
2016-07-15 06:19:26,0.01,0.11,0.00,20.43,26.41,29.61,14.74,45.05,1016.13,2045.00,3559.05,3122.00,3541.74,600.17,601.14,21.34,0000 0000 0000 0000 000000
2016-07-15 06:24:28,0.02,0.11,0.00,21.04,26.44,29.70,14.69,44.66,1016.13,2044.98,3558.64,3121.78,3541.06,600.24,600.01,21.39,0000 0000 0000 0000 000000
2016-07-15 06:29:29,0.03,0.12,0.00,22.27,26.49,29.85,14.53,44.18,1016.13,2044.98,3557.97,3121.04,3540.59,600.07,597.27,21.44,0000 0000 0000 0000 000000
2016-07-15 06:34:30,0.02,0.12,0.00,22.75,26.55,29.66,14.47,43.98,1016.13,2044.89,3557.22,3120.54,3539.92,600.17,596.40,21.49,0000 0000 0000 0000 000000
2016-07-15 06:39:32,-0.02,0.12,0.00,22.87,26.60,29.61,14.47,43.92,1016.13,2044.36,3556.44,3119.93,3539.10,600.31,596.25,21.54,0000 0000 0000 0000 000000
2016-07-15 06:44:33,0.02,0.12,0.00,22.86,26.67,29.66,14.44,44.02,1016.13,2044.02,3555.68,3119.11,3538.26,599.97,596.02,21.59,0000 0000 0000 0000 000000
2016-07-15 06:49:35,0.03,0.12,0.00,23.20,26.75,29.73,14.43,43.88,1016.13,2043.99,3554.92,3118.50,3537.57,600.15,595.50,21.64,0000 0000 0000 0000 000000
2016-07-15 06:54:36,0.01,0.12,0.00,23.30,26.82,29.81,14.43,43.75,1016.21,2043.86,3554.04,3117.92,3536.84,600.11,595.36,21.69,0000 0000 0000 0000 000000
2016-07-15 06:59:37,-0.02,0.12,0.00,23.40,26.90,29.88,14.44,43.67,1016.59,2043.22,3553.18,3117.12,3536.04,600.06,595.22,21.74,0000 0000 0000 0000 000000
2016-07-15 07:04:39,0.04,0.12,0.00,23.47,26.98,29.97,14.43,43.69,1016.62,2043.00,3552.34,3116.41,3535.15,600.09,595.21,21.79,0000 0000 0000 0000 000000
2016-07-15 07:09:40,0.03,0.12,0.00,23.55,27.06,30.07,14.32,43.47,1016.63,2042.94,3551.47,3115.82,3534.28,599.66,594.42,21.84,0000 0000 0000 0000 000000
2016-07-15 07:14:41,-0.03,0.12,0.00,23.64,27.14,30.14,14.34,43.39,1016.94,2042.19,3550.49,3114.85,3533.35,599.85,594.82,21.89,0000 0000 0000 0000 000000
2016-07-15 07:19:42,0.08,0.12,0.00,23.67,27.22,30.21,14.36,43.47,1017.16,2042.00,3548.85,3113.58,3531.74,599.76,594.85,21.94,0000 0000 0000 0000 000000
2016-07-15 07:24:43,0.04,0.13,0.00,23.66,27.30,30.27,14.40,43.44,1017.46,2041.85,3547.28,3112.30,3530.27,599.95,595.20,21.99,0000 0000 0000 0000 000000
2016-07-15 07:29:44,-0.01,0.13,0.00,23.69,27.37,30.33,14.41,43.29,1017.58,2041.12,3545.96,3111.31,3529.06,599.90,595.10,22.04,0000 0000 0000 0000 000000
2016-07-15 07:34:46,0.08,0.13,0.00,23.70,27.44,30.39,14.36,43.37,1017.62,2041.00,3544.49,3110.16,3527.71,599.98,595.24,22.09,0000 0000 0000 0000 000000
2016-07-15 07:39:47,0.10,0.14,0.00,23.72,27.51,30.46,14.36,43.29,1017.60,2040.97,3542.21,3108.58,3525.83,599.90,595.08,22.14,0000 0000 0000 0000 000000
2016-07-15 07:44:49,0.01,0.14,0.00,23.73,27.57,30.50,14.41,43.34,1017.79,2040.37,3540.20,3107.05,3523.98,600.12,595.56,22.19,0000 0000 0000 0000 000000
2016-07-15 07:49:50,0.04,0.14,0.00,23.76,27.63,30.56,14.39,43.51,1017.87,2040.01,3539.05,3106.00,3522.71,599.54,594.75,22.24,0000 0000 0000 0000 000000
2016-07-15 07:54:51,0.04,0.14,0.00,23.75,27.69,30.61,14.38,43.43,1018.05,2039.98,3538.14,3105.15,3521.89,600.11,595.48,22.29,0000 0000 0000 0000 000000
2016-07-15 07:59:52,0.01,0.14,0.00,23.79,27.74,30.66,14.41,43.45,1018.09,2039.72,3537.14,3104.50,3521.06,600.04,595.36,22.34,0000 0000 0000 0000 000000
2016-07-15 08:04:54,-0.01,0.14,0.00,23.82,27.79,30.71,14.34,43.42,1018.15,2039.09,3536.22,3103.92,3520.22,599.85,595.24,22.39,0000 0000 0000 0000 000000
2016-07-15 08:09:55,0.03,0.14,0.00,23.82,27.84,30.74,14.38,43.36,1018.45,2039.00,3535.56,3103.12,3519.76,599.65,595.12,22.44,0000 0000 0000 0000 000000
2016-07-15 08:14:56,0.03,0.14,0.00,23.86,27.88,30.77,14.35,43.31,1018.57,2038.99,3534.77,3102.77,3519.03,599.86,595.31,22.49,0000 0000 0000 0000 000000
2016-07-15 08:19:58,-0.01,0.15,0.00,23.86,27.92,30.79,14.41,43.39,1018.58,2038.63,3534.03,3102.04,3518.26,599.95,595.38,22.54,0000 0000 0000 0000 000000
2016-07-15 08:24:59,0.00,0.14,0.00,23.86,27.96,30.83,14.39,43.48,1018.89,2038.18,3533.43,3101.68,3517.82,599.85,595.43,22.59,0000 0000 0000 0000 000000
2016-07-15 08:30:00,0.02,0.15,0.00,23.87,27.99,30.86,14.43,43.58,1019.05,2038.01,3532.63,3101.03,3517.03,599.81,595.53,22.64,0000 0000 0000 0000 000000
2016-07-15 08:35:02,0.04,0.15,0.00,23.88,28.02,30.89,14.38,43.59,1019.06,2038.00,3531.86,3100.43,3516.26,599.94,595.71,22.69,0000 0000 0000 0000 000000
2016-07-15 08:40:03,0.02,0.15,0.00,23.90,28.05,30.91,14.34,43.38,1019.10,2037.99,3531.02,3099.99,3515.70,599.97,595.60,22.74,0000 0000 0000 0000 000000
2016-07-15 08:45:05,0.03,0.15,0.00,23.92,28.08,30.92,14.43,43.48,1019.09,2037.93,3530.21,3099.40,3515.03,600.19,595.82,22.79,0000 0000 0000 0000 000000
2016-07-15 08:50:06,-0.03,0.15,0.00,23.91,28.11,30.96,14.41,43.42,1019.32,2037.49,3529.84,3099.00,3514.51,600.04,595.80,22.84,0000 0000 0000 0000 000000
2016-07-15 08:55:07,0.01,0.15,0.00,23.90,28.13,30.98,14.51,43.48,1019.54,2037.07,3529.02,3098.42,3513.85,600.02,595.96,22.89,0000 0000 0000 0000 000000
2016-07-15 09:00:09,0.02,0.15,0.00,23.93,28.15,30.99,14.39,43.50,1019.54,2037.01,3528.19,3097.99,3513.06,600.02,595.99,22.94,0000 0000 0000 0000 000000
2016-07-15 09:05:10,0.04,0.15,0.00,23.95,28.17,31.00,14.42,43.50,1019.57,2037.00,3527.67,3097.38,3512.61,600.04,595.90,22.99,0000 0000 0000 0000 000000
2016-07-15 09:10:12,0.01,0.15,0.00,23.93,28.19,31.02,14.49,43.41,1019.94,2036.99,3526.95,3097.00,3512.00,599.88,595.91,23.04,0000 0000 0000 0000 000000
2016-07-15 09:15:13,0.04,0.16,0.00,23.93,28.20,31.03,14.45,43.50,1020.03,2036.98,3526.12,3096.52,3511.39,599.98,596.11,23.09,0000 0000 0000 0000 000000
2016-07-15 09:20:14,0.02,0.16,0.00,23.89,28.22,31.05,14.36,43.40,1020.03,2036.97,3525.42,3096.01,3510.94,600.13,596.31,23.14,0000 0000 0000 0000 000000
2016-07-15 09:25:16,0.01,0.16,0.00,23.89,28.22,31.05,14.50,43.56,1020.03,2036.82,3524.89,3095.69,3510.16,600.29,596.53,23.19,0000 0000 0000 0000 000000
2016-07-15 09:30:17,-0.01,0.16,0.00,23.94,28.25,31.06,14.44,43.51,1020.03,2036.28,3524.11,3095.03,3509.69,600.28,596.34,23.24,0000 0000 0000 0000 000000
2016-07-15 09:35:18,0.02,0.16,0.00,23.97,28.26,31.07,14.43,43.50,1020.03,2036.06,3523.42,3094.65,3509.02,600.04,596.19,23.29,0000 0000 0000 0000 000000
2016-07-15 09:40:19,0.02,0.16,0.00,23.94,28.27,31.09,14.39,43.42,1020.10,2036.01,3522.78,3094.03,3508.42,599.82,596.13,23.34,0000 0000 0000 0000 000000
2016-07-15 09:45:20,0.04,0.16,0.00,23.93,28.28,31.11,14.47,43.49,1020.30,2036.00,3521.80,3093.57,3507.68,600.35,596.67,23.39,0000 0000 0000 0000 000000
2016-07-15 09:50:21,0.02,0.16,0.00,23.92,28.30,31.11,14.52,43.50,1020.37,2036.00,3521.01,3093.00,3507.02,600.69,597.07,23.44,0000 0000 0000 0000 000000
2016-07-15 09:55:23,0.02,0.16,0.00,23.82,28.30,31.14,14.44,43.58,1020.47,2036.00,3520.22,3092.86,3506.72,599.83,596.49,23.49,0000 0000 0000 0000 000000
2016-07-15 10:00:24,0.03,0.17,0.00,23.94,28.30,31.12,14.48,43.56,1020.51,2036.00,3519.94,3092.16,3506.04,600.01,596.41,23.54,0000 0000 0000 0000 000000
2016-07-15 10:05:26,0.04,0.17,0.00,23.78,28.32,31.15,14.45,43.49,1020.52,2036.00,3518.98,3091.79,3505.51,599.84,596.59,23.60,0000 0000 0000 0000 000000
2016-07-15 10:10:27,0.18,0.17,0.00,23.70,28.32,31.17,14.42,43.49,1020.56,2035.99,3516.00,3089.82,3503.32,599.89,596.82,23.65,0000 0000 0000 0000 000000
2016-07-15 10:15:28,0.09,0.18,0.00,23.84,28.32,31.18,14.51,43.59,1020.57,2035.97,3512.65,3087.74,3500.93,600.19,596.85,23.70,0000 0000 0000 0000 000000
2016-07-15 10:20:29,0.03,0.18,0.00,23.89,28.33,31.17,14.49,43.52,1020.58,2035.97,3511.77,3087.03,3500.07,600.18,596.58,23.75,0000 0000 0000 0000 000000
2016-07-15 10:25:31,0.02,0.18,0.00,23.90,28.35,31.18,14.49,43.39,1020.76,2035.97,3510.99,3086.83,3499.74,600.07,596.73,23.80,0000 0000 0000 0000 000000
2016-07-15 10:30:32,0.04,0.19,0.00,23.93,28.35,31.17,14.52,43.39,1021.00,2035.94,3510.05,3086.06,3498.91,600.18,596.91,23.85,0000 0000 0000 0000 000000
2016-07-15 10:35:33,0.04,0.19,0.00,23.93,28.36,31.19,14.41,43.43,1021.01,2035.93,3509.06,3085.35,3498.07,600.04,596.80,23.90,0000 0000 0000 0000 000000
2016-07-15 10:40:35,-0.01,0.19,0.00,23.89,28.37,31.20,14.45,43.45,1021.01,2035.74,3508.78,3085.03,3497.98,599.73,596.51,23.95,0000 0000 0000 0000 000000
2016-07-15 10:45:36,0.00,0.19,0.00,23.84,28.37,31.22,14.46,43.53,1021.02,2035.55,3508.12,3085.00,3497.48,599.67,596.60,24.00,0000 0000 0000 0000 000000
2016-07-15 10:50:37,0.02,0.19,0.00,23.77,28.37,31.22,14.53,43.49,1021.23,2035.45,3507.89,3084.90,3497.02,599.82,597.03,24.05,0000 0000 0000 0000 000000
2016-07-15 10:55:38,-0.00,0.19,0.00,23.86,28.37,31.20,14.51,43.38,1021.49,2035.31,3507.20,3084.27,3496.96,600.11,597.22,24.10,0000 0000 0000 0000 000000
2016-07-15 11:00:39,0.01,0.19,0.00,23.84,28.38,31.21,14.59,43.47,1021.50,2035.08,3506.64,3084.00,3496.16,600.26,597.36,24.15,0000 0000 0000 0000 000000
2016-07-15 11:05:40,0.01,0.19,0.00,23.89,28.40,31.21,14.50,43.51,1021.50,2035.02,3506.03,3083.62,3495.97,599.90,596.99,24.20,0000 0000 0000 0000 000000
2016-07-15 11:10:41,0.01,0.19,0.00,23.90,28.40,31.22,14.45,43.70,1021.50,2035.01,3506.00,3083.22,3495.86,599.98,597.07,24.25,0000 0000 0000 0000 000000
2016-07-15 11:15:43,0.01,0.19,0.00,23.88,28.40,31.23,14.49,43.58,1021.52,2035.00,3505.99,3083.03,3495.28,600.10,597.25,24.30,0000 0000 0000 0000 000000
2016-07-15 11:20:44,0.00,0.19,0.00,23.73,28.40,31.24,14.51,43.56,1021.55,2035.00,3505.99,3083.01,3495.10,599.80,597.26,24.35,0000 0000 0000 0000 000000
2016-07-15 11:25:45,0.00,0.19,0.00,23.83,28.40,31.23,14.47,43.45,1021.78,2035.00,3505.94,3083.01,3495.06,599.78,597.17,24.40,0000 0000 0000 0000 000000
2016-07-15 11:30:46,0.01,0.19,0.00,23.88,28.40,31.22,14.47,43.40,1021.93,2035.00,3505.75,3083.00,3495.00,599.87,597.22,24.45,0000 0000 0000 0000 000000
2016-07-15 11:35:48,0.00,0.19,0.00,23.89,28.40,31.23,14.49,43.37,1021.95,2034.98,3505.38,3082.99,3495.00,599.81,597.41,24.50,0000 0000 0000 0000 000000
2016-07-15 11:40:49,0.00,0.19,0.00,23.84,28.40,31.24,14.51,43.62,1021.96,2034.97,3505.12,3082.98,3494.98,600.09,597.56,24.55,0000 0000 0000 0000 000000
2016-07-15 11:45:51,-0.00,0.19,0.00,23.78,28.40,31.25,14.57,43.73,1021.99,2034.94,3505.03,3082.97,3494.96,600.12,597.74,24.60,0000 0000 0000 0000 000000
2016-07-15 11:50:53,-0.00,0.19,0.00,23.81,28.40,31.25,14.53,43.67,1021.99,2034.89,3505.01,3082.92,3494.91,600.00,597.47,24.65,0000 0000 0000 0000 000000
2016-07-15 11:55:54,0.01,0.19,0.00,23.80,28.40,31.26,14.48,43.58,1022.00,2034.96,3505.00,3082.94,3494.88,599.87,597.45,24.70,0000 0000 0000 0000 000000
2016-07-15 12:00:55,0.04,0.20,0.00,23.82,28.40,31.25,14.57,43.60,1022.16,2034.96,3504.66,3082.34,3494.21,599.94,597.61,24.75,0000 0000 0000 0000 000000
2016-07-15 12:05:56,0.01,0.20,0.00,23.82,28.40,31.25,14.50,43.66,1022.44,2034.96,3504.07,3082.01,3494.00,600.00,597.80,24.80,0000 0000 0000 0000 000000
2016-07-15 12:10:58,0.00,0.20,0.00,23.83,28.40,31.26,14.46,43.65,1022.48,2034.95,3503.89,3081.98,3493.82,599.93,597.86,24.85,0000 0000 0000 0000 000000
2016-07-15 12:15:59,0.04,0.20,0.00,23.82,28.40,31.26,14.51,43.56,1022.47,2034.83,3502.87,3081.15,3492.96,600.17,598.01,24.90,0000 0000 0000 0000 000000
2016-07-15 12:21:00,0.02,0.20,0.00,23.36,28.38,31.31,14.51,43.54,1022.48,2034.86,3502.04,3080.99,3492.54,599.80,598.49,24.95,0000 0000 0000 0000 000000
2016-07-15 12:26:01,0.01,0.20,0.00,22.78,28.36,31.51,14.65,43.83,1022.47,2034.92,3501.97,3080.96,3492.19,599.94,599.93,25.00,0000 0000 0000 0000 000000
2016-07-15 12:31:02,0.02,0.20,0.00,22.58,28.33,31.49,14.66,43.98,1022.47,2034.97,3501.25,3080.67,3492.01,599.97,600.32,25.05,0000 0000 0000 0000 000000
2016-07-15 12:36:03,0.03,0.20,0.00,22.86,28.30,31.48,14.62,43.84,1022.48,2034.99,3500.65,3080.04,3491.76,600.04,599.86,25.10,0000 0000 0000 0000 000000
2016-07-15 12:41:05,0.01,0.20,0.00,23.36,28.30,31.48,14.60,43.70,1022.56,2034.99,3500.05,3079.99,3491.13,600.02,598.81,25.15,0000 0000 0000 0000 000000
2016-07-15 12:46:06,0.00,0.20,0.00,23.51,28.28,31.28,14.50,43.59,1022.91,2034.99,3500.06,3079.99,3491.16,600.04,598.73,25.20,0000 0000 0000 0000 000000
2016-07-15 12:51:07,-0.00,0.20,0.00,23.54,28.27,31.21,14.50,43.57,1022.96,2034.99,3500.13,3079.99,3491.15,599.97,598.67,25.25,0000 0000 0000 0000 000000
2016-07-15 12:56:08,-0.00,0.20,0.00,23.59,28.28,31.20,14.55,43.63,1022.96,2034.99,3500.33,3079.99,3491.26,599.91,598.65,25.30,0000 0000 0000 0000 000000